Regional Weather Roundup
Issued by NWS

Home | Current Version | Previous Version | Graphics & Text | Print | Product List | Glossary On
Versions: 1 2 3 4 5 6 7 8 9 10 11 12 13 14 15 16 17 18 19 20 21 22 23 24 25 26 27 28 29 30 31 32 33 34 35 36 37 38 39 40 41 42 43 44 45 46 47 48 49 50
000
ASUS43 KLSX 291957
RWRMO

WEATHER SUMMARY FOR MISSOURI
NATIONAL WEATHER SERVICE SPRINGFIELD MO
300 PM CDT SAT AUG 29 2015

NOTE: "FAIR" INDICATES FEW OR NO CLOUDS BELOW 12,000 FEET WITH NO
       SIGNIFICANT WEATHER AND/OR OBSTRUCTIONS TO VISIBILITY.
       CURRENT SKY AND/OR WEATHER CONDITIONS ARE NOT AVAILABLE FOR
       CHILLICOTHE AND FARMINGTON.

MOZ001>031-035>038-043-044-053-054-292100-
...NORTHERN AND WESTERN MISSOURI...

CITY           SKY/WX    TMP DP  RH WIND       PRES   REMARKS
KANSAS CTY INT CLOUDY    78  67  68 NW7       30.02F
LEE`S SUMMIT   CLOUDY    77  67  71 NW6       30.01F
ST JOSEPH      CLOUDY    74  66  76 N6        30.03F

$$
MOZ066>068-077>081-088>096-101>105-292100-
...SOUTHWEST MISSOURI...

CITY           SKY/WX    TMP DP  RH WIND       PRES   REMARKS
SPRINGFIELD    CLOUDY    80  68  66 S10       30.00F
JOPLIN         CLOUDY    80  68  66 MISG      30.00S

$$
MOZ032>034-039>042-045>050-055>058-069>072-292100-
...CENTRAL MISSOURI...

CITY           SKY/WX    TMP DP  RH WIND       PRES   REMARKS
COLUMBIA       NOT AVBL
JEFFERSON CITY CLOUDY    83  64  52 SW6       29.97F
ROLLA          MOSUNNY   83  65  54 SW12      30.00F
SEDALIA        CLOUDY    81  67  62 NW6       30.01F

$$
MOZ051-052-059>065-292100-
...EAST CENTRAL MISSOURI...

CITY           SKY/WX    TMP DP  RH WIND       PRES   REMARKS
ST LOUIS INTL  CLOUDY    82  66  58 SW8       30.01F

$$
MOZ072>076-082>087-097>100-106>115-292100-
...SOUTH CENTRAL AND SOUTHEAST MISSOURI...

CITY           SKY/WX    TMP DP  RH WIND       PRES   REMARKS
CAPE GIRARDEAU PTSUNNY   83  68  60 NW10      30.03S
POPLAR BLUFF   CLOUDY    78  68  71 CALM      30.02F
WEST PLAINS    PTSUNNY   73  65  75 SE3       30.06F

$$



USA.gov is the U.S. government's official web portal to all federal, state and local government web resources and services.